Terminal Aerodrome Forecast
Issued by NWS

Home | Current Version | Previous Version | Text Only | Print | Product List | Glossary On
Versions: 1 2 3 4 5 6 7 8 9 10 11 12 13 14
070
FTUS46 KSTO 092326
TAFMHR
TAF
KMHR 092326Z 1000/1024 VRB04KT P6SM FEW250
      TEMPO 1013/1017 4SM BR=

USA.gov is the U.S. government's official web portal to all federal, state and local government web resources and services.